This is the latest recevied weather packets stored in our database for station/object AC2JK-WX. If no packets are shown the sender has not sent any weather packets the latest 10 day(s).
| Time | Temp. | Humidity | Pressure | Rain* | Wind** | Luminosity | Snow |
|---|---|---|---|---|---|---|---|
| 1777562830 | 9.44° C | 72% | 1012 hPa | 0 mm | - | - | - |
| 1777562530 | 9.44° C | 70% | 1012 hPa | 0 mm | - | - | - |
| 1777562230 | 9.44° C | 73% | 1012 hPa | 0 mm | - | - | - |
| 1777561930 | 9.44° C | 75% | 1012 hPa | 0 mm | - | - | - |
| 1777561629 | 9.44° C | 74% | 1012 hPa | 0 mm | - | - | - |
| 1777561330 | 9.44° C | 74% | 1012 hPa | 0 mm | - | - | - |
| 1777561029 | 9.44° C | 75% | 1012 hPa | 0 mm | - | - | - |
| 1777560730 | 8.89° C | 73% | 1012 hPa | 0 mm | - | - | - |
| 1777560430 | 8.89° C | 74% | 1012 hPa | 0 mm | - | - | - |
| 1777560130 | 9.44° C | 74% | 1012 hPa | 0 mm | - | - | - |
| 1777559830 | 9.44° C | 75% | 1012 hPa | 0 mm | - | - | - |
| 1777559529 | 9.44° C | 74% | 1012 hPa | 0 mm | - | - | - |
| 1777559230 | 8.89° C | 77% | 1012 hPa | 0 mm | - | - | - |
| 1777558932 | 8.33° C | 77% | 1012 hPa | 0 mm | - | - | - |
| 1777558630 | 8.33° C | 78% | 1012 hPa | 0 mm | - | - | - |
| 1777558329 | 7.78° C | 80% | 1012 hPa | 0 mm | - | - | - |
| 1777558030 | 7.78° C | 81% | 1012 hPa | 0 mm | - | - | - |
| 1777557731 | 7.78° C | 78% | 1011 hPa | 0 mm | - | - | - |
| 1777557432 | 8.33° C | 79% | 1011 hPa | 0 mm | - | - | - |
| 1777557130 | 7.78° C | 78% | 1011 hPa | 0 mm | - | - | - |
| 1777556829 | 7.78° C | 80% | 1011 hPa | 0 mm | - | - | - |
| 1777556529 | 7.78° C | 81% | 1011 hPa | 0 mm | - | - | - |
| 1777556232 | 7.78° C | 82% | 1011 hPa | 0 mm | - | - | - |
| 1777555931 | 7.22° C | 81% | 1011 hPa | 0 mm | - | - | - |
| 1777555632 | 7.22° C | 82% | 1011 hPa | 0 mm | - | - | - |
* Rain latest hour (hover to see other rain measurements)
** Current wind speed in m/s (hover to see current wind gust speed)